Satellite-Ground Cal/Val Region Overpasses Predictions

Prediction of Satellite NPP Overpassing Cal/Val Region: PacNW

Region Location: (Latitude: 10.00, Longitude: 139.50) to (Latitude: 22.70, Longitude: 165.60).

Table of predicted overpasses for the next 14.0 days since TLE Epoch: 6/12/2016
Interval Starting Time Starting Location Ending Time Ending Location
1 06/12/2016 14:59:30 ( 22.70, 160.28) 06/12/2016 15:03:06 ( 10.02, 157.26)
2 06/13/2016 02:11:15 ( 19.43, 165.59) 06/13/2016 02:12:10 ( 22.66, 164.79)
3 06/13/2016 03:50:05 ( 10.04, 142.42) 06/13/2016 03:53:34 ( 22.31, 139.51)
4 06/13/2016 14:40:28 ( 22.66, 165.02) 06/13/2016 14:44:03 ( 10.04, 162.02)
5 06/13/2016 16:21:58 ( 22.66, 139.65) 06/13/2016 16:22:08 ( 22.07, 139.50)
6 06/14/2016 03:31:03 ( 10.02, 147.18) 06/14/2016 03:34:39 ( 22.70, 144.17)
7 06/14/2016 16:02:56 ( 22.68, 144.41) 06/14/2016 16:06:31 ( 10.06, 141.41)
8 06/15/2016 03:12:01 ( 10.05, 151.93) 06/15/2016 03:15:36 ( 22.68, 148.93)
9 06/15/2016 15:43:54 ( 22.65, 149.16) 06/15/2016 15:47:29 ( 10.02, 146.16)
10 06/16/2016 02:52:59 ( 10.03, 156.69) 06/16/2016 02:56:34 ( 22.65, 153.69)
11 06/16/2016 15:24:52 ( 22.67, 153.92) 06/16/2016 15:28:27 ( 10.05, 150.92)
12 06/17/2016 02:33:56 ( 10.01, 161.46) 06/17/2016 02:37:32 ( 22.69, 158.44)
13 06/17/2016 15:05:49 ( 22.69, 158.69) 06/17/2016 15:09:25 ( 10.01, 155.67)
14 06/18/2016 02:15:40 ( 12.68, 165.60) 06/18/2016 02:18:30 ( 22.66, 163.21)
15 06/18/2016 03:56:25 ( 10.05, 140.83) 06/18/2016 03:58:02 ( 15.75, 139.51)
16 06/18/2016 14:46:48 ( 22.66, 163.44) 06/18/2016 14:50:23 ( 10.04, 160.44)
17 06/19/2016 03:37:22 ( 10.02, 145.59) 06/19/2016 03:40:57 ( 22.65, 142.59)
18 06/19/2016 14:30:51 ( 11.76, 165.59) 06/19/2016 14:31:21 ( 10.00, 165.19)
19 06/19/2016 16:09:15 ( 22.67, 142.82) 06/19/2016 16:12:50 ( 10.05, 139.82)
20 06/20/2016 03:18:20 ( 10.00, 150.36) 06/20/2016 03:21:56 ( 22.68, 147.34)
21 06/20/2016 15:50:13 ( 22.70, 147.59) 06/20/2016 15:53:49 ( 10.02, 144.57)
22 06/21/2016 02:59:19 ( 10.04, 155.11) 06/21/2016 03:02:54 ( 22.66, 152.11)
23
